• In Czech Republic
  • List of Countries
  • For 7 days
  • Water Temperature
  • Satellite Maps
  • Weather Map
  • Weather Widgets
  • user-avatar
    Login

    Hourly Weather Khulna

    Today, 20 May, Sunday

    Time Temperature Precipitation Wind Pressure Humidity
    00:00 +30°C° 0 mm 2 mps 753 mmHg 82%
    01:00 +30°C° 0 mm 2 mps 752 mmHg 83%
    02:00 +30°C° 0 mm 2 mps 752 mmHg 84%
    03:00 +29°C° 0 mm 2 mps 752 mmHg 85%
    04:00 +29°C° 0 mm 2 mps 752 mmHg 85%
    05:00 +30°C° 0 mm 2 mps 752 mmHg 85%
    06:00 +30°C° 0 mm 2 mps 753 mmHg 85%
    07:00 +31°C° 0.1 mm 2 mps 753 mmHg 79%
    08:00 +33°C° 0.1 mm 3 mps 753 mmHg 73%
    09:00 +34°C° 0.1 mm 3 mps 753 mmHg 67%
    10:00 +36°C° 0 mm 3 mps 753 mmHg 59%
    11:00 +38°C° 0 mm 3 mps 753 mmHg 51%
    12:00 +38°C° 0 mm 4 mps 753 mmHg 50%
    13:00 +40°C° 1 mm 4 mps 753 mmHg 49%
    14:00 +40°C° 1 mm 4 mps 752 mmHg 48%
    15:00 +40°C° 1 mm 4 mps 752 mmHg 46%
    16:00 +38°C° 1.1 mm 4 mps 751 mmHg 51%
    17:00 +37°C° 1.1 mm 5 mps 751 mmHg 56%
    18:00 +35°C° 1.1 mm 5 mps 751 mmHg 60%
    19:00 +34°C° 0.7 mm 5 mps 751 mmHg 65%
    20:00 +33°C° 0.7 mm 4 mps 752 mmHg 70%
    21:00 +32°C° 0.7 mm 4 mps 752 mmHg 75%
    22:00 +32°C° 0 mm 4 mps 752 mmHg 77%
    23:00 +32°C° 0 mm 4 mps 752 mmHg 79%

    Tomorrow, 21 May, Monday

    Time Temperature Precipitation Wind Pressure Humidity
    00:00 +30°C° 0 mm 4 mps 752 mmHg 80%
    01:00 +30°C° 0 mm 4 mps 752 mmHg 80%
    02:00 +30°C° 0 mm 4 mps 752 mmHg 80%
    03:00 +30°C° 0 mm 4 mps 752 mmHg 79%
    04:00 +30°C° 0 mm 4 mps 752 mmHg 80%
    05:00 +30°C° 0 mm 4 mps 752 mmHg 80%
    06:00 +30°C° 0 mm 3 mps 752 mmHg 80%
    07:00 +32°C° 0 mm 4 mps 753 mmHg 76%
    08:00 +33°C° 0 mm 5 mps 753 mmHg 72%
    09:00 +34°C° 0 mm 5 mps 754 mmHg 68%
    10:00 +36°C° 0 mm 5 mps 754 mmHg 61%
    11:00 +39°C° 0 mm 5 mps 753 mmHg 54%
    12:00 +40°C° 0 mm 5 mps 753 mmHg 48%
    13:00 +40°C° 0.1 mm 5 mps 753 mmHg 47%
    14:00 +40°C° 0.1 mm 5 mps 752 mmHg 47%
    15:00 +40°C° 0.1 mm 5 mps 751 mmHg 46%
    16:00 +39°C° 0 mm 5 mps 751 mmHg 49%
    17:00 +38°C° 0 mm 6 mps 751 mmHg 53%
    18:00 +36°C° 0 mm 6 mps 750 mmHg 56%
    19:00 +35°C° 0 mm 6 mps 751 mmHg 62%
    20:00 +34°C° 0 mm 5 mps 751 mmHg 67%
    21:00 +32°C° 0 mm 5 mps 752 mmHg 73%
    22:00 +32°C° 0 mm 5 mps 752 mmHg 74%
    23:00 +32°C° 0 mm 5 mps 752 mmHg 76%

    Day after tomorrow, 22 May, Tuesday

    Time Temperature Precipitation Wind Pressure Humidity
    00:00 +32°C° 0 mm 5 mps 753 mmHg 77%
    01:00 +32°C° 0 mm 4 mps 752 mmHg 78%
    02:00 +30°C° 0 mm 4 mps 752 mmHg 78%
    03:00 +30°C° 0 mm 4 mps 752 mmHg 79%
    04:00 +30°C° 0 mm 4 mps 752 mmHg 80%
    05:00 +30°C° 0 mm 4 mps 753 mmHg 80%
    06:00 +30°C° 0 mm 4 mps 753 mmHg 81%
    07:00 +32°C° 0 mm 4 mps 753 mmHg 74%
    08:00 +34°C° 0 mm 4 mps 754 mmHg 67%
    09:00 +35°C° 0 mm 5 mps 754 mmHg 60%
    10:00 +37°C° 0 mm 5 mps 754 mmHg 54%
    11:00 +40°C° 0 mm 5 mps 754 mmHg 48%
    12:00 +41°C° 0 mm 5 mps 754 mmHg 42%
    13:00 +41°C° 0 mm 5 mps 753 mmHg 41%
    14:00 +41°C° 0 mm 5 mps 752 mmHg 40%
    15:00 +42°C° 0 mm 6 mps 752 mmHg 40%
    16:00 +40°C° 0 mm 6 mps 752 mmHg 44%
    17:00 +39°C° 0 mm 6 mps 752 mmHg 48%
    18:00 +36°C° 0 mm 6 mps 752 mmHg 53%
    19:00 +35°C° 0 mm 6 mps 752 mmHg 58%
    20:00 +34°C° 0 mm 5 mps 753 mmHg 63%
    21:00 +33°C° 0 mm 5 mps 753 mmHg 68%
    22:00 +32°C° 0 mm 5 mps 753 mmHg 71%
    23:00 +32°C° 0 mm 5 mps 753 mmHg 74%

    23 May, Wednesday

    Time Temperature Precipitation Wind Pressure Humidity
    00:00 +32°C° 0 mm 5 mps 753 mmHg 76%
    01:00 +30°C° 0 mm 5 mps 753 mmHg 78%
    02:00 +30°C° 0 mm 4 mps 753 mmHg 79%
    03:00 +30°C° 0 mm 4 mps 753 mmHg 80%
    04:00 +30°C° 0 mm 4 mps 753 mmHg 81%
    05:00 +30°C° 0 mm 4 mps 753 mmHg 81%
    06:00 +30°C° 0 mm 3 mps 753 mmHg 82%
    07:00 +32°C° 0 mm 4 mps 754 mmHg 74%
    08:00 +34°C° 0 mm 4 mps 755 mmHg 66%
    09:00 +36°C° 0 mm 5 mps 755 mmHg 58%
    10:00 +37°C° 0 mm 5 mps 755 mmHg 51%
    11:00 +40°C° 0 mm 5 mps 754 mmHg 44%
    12:00 +42°C° 0 mm 6 mps 754 mmHg 37%
    13:00 +42°C° 0 mm 6 mps 753 mmHg 36%
    14:00 +42°C° 0 mm 6 mps 752 mmHg 35%
    15:00 +42°C° 0 mm 6 mps 752 mmHg 34%
    16:00 +40°C° 0 mm 6 mps 751 mmHg 39%
    17:00 +39°C° 0 mm 6 mps 751 mmHg 43%
    18:00 +38°C° 0 mm 6 mps 751 mmHg 48%
    19:00 +35°C° 0 mm 6 mps 752 mmHg 55%
    20:00 +34°C° 0 mm 5 mps 752 mmHg 61%
    21:00 +33°C° 0 mm 5 mps 753 mmHg 68%
    22:00 +32°C° 0 mm 5 mps 753 mmHg 70%
    23:00 +32°C° 0 mm 5 mps 753 mmHg 72%

    24 May, Thursday

    Time Temperature Precipitation Wind Pressure Humidity
    00:00 +32°C° 0 mm 6 mps 753 mmHg 75%
    01:00 +30°C° 0 mm 5 mps 752 mmHg 76%
    02:00 +30°C° 0 mm 5 mps 752 mmHg 77%
    03:00 +30°C° 0 mm 4 mps 751 mmHg 78%
    04:00 +30°C° 0 mm 4 mps 752 mmHg 78%
    05:00 +30°C° 0 mm 4 mps 752 mmHg 79%
    06:00 +30°C° 0 mm 4 mps 753 mmHg 80%
    07:00 +32°C° 0 mm 5 mps 753 mmHg 74%
    08:00 +33°C° 0 mm 5 mps 754 mmHg 67%
    09:00 +35°C° 0 mm 6 mps 754 mmHg 61%
    10:00 +36°C° 0 mm 6 mps 754 mmHg 54%
    11:00 +39°C° 0 mm 7 mps 754 mmHg 48%
    12:00 +40°C° 0 mm 7 mps 753 mmHg 42%
    13:00 +41°C° 0 mm 7 mps 752 mmHg 40%
    14:00 +41°C° 0 mm 7 mps 752 mmHg 39%
    15:00 +41°C° 0 mm 7 mps 751 mmHg 37%
    16:00 +40°C° 0 mm 7 mps 751 mmHg 41%
    17:00 +38°C° 0 mm 7 mps 751 mmHg 45%
    18:00 +36°C° 0 mm 7 mps 751 mmHg 49%
    19:00 +35°C° 0 mm 7 mps 751 mmHg 54%
    20:00 +34°C° 0 mm 7 mps 751 mmHg 60%
    21:00 +32°C° 0 mm 7 mps 752 mmHg 65%
    22:00 +32°C° 0 mm 7 mps 752 mmHg 67%
    23:00 +32°C° 0 mm 7 mps 752 mmHg 69%

    25 May, Friday

    Time Temperature Precipitation Wind Pressure Humidity
    00:00 +32°C° 0 mm 7 mps 752 mmHg 72%
    01:00 +32°C° 0 mm 6 mps 752 mmHg 73%
    02:00 +30°C° 0 mm 6 mps 751 mmHg 74%
    03:00 +30°C° 0 mm 5 mps 751 mmHg 75%
    04:00 +30°C° 0 mm 5 mps 751 mmHg 76%
    05:00 +30°C° 0 mm 5 mps 752 mmHg 76%
    06:00 +30°C° 0 mm 5 mps 752 mmHg 77%
    07:00 +33°C° 0 mm 6 mps 752 mmHg 69%
    08:00 +34°C° 0 mm 7 mps 753 mmHg 61%
    09:00 +37°C° 0 mm 8 mps 753 mmHg 53%
    10:00 +38°C° 0 mm 8 mps 753 mmHg 49%
    11:00 +40°C° 0 mm 8 mps 753 mmHg 45%
    12:00 +41°C° 0 mm 8 mps 752 mmHg 41%
    13:00 +41°C° 0 mm 8 mps 751 mmHg 41%
    14:00 +41°C° 0 mm 8 mps 751 mmHg 41%
    15:00 +41°C° 0 mm 8 mps 750 mmHg 41%
    16:00 +40°C° 0 mm 8 mps 750 mmHg 44%
    17:00 +38°C° 0 mm 8 mps 749 mmHg 48%
    18:00 +37°C° 0 mm 8 mps 749 mmHg 51%
    19:00 +35°C° 0.2 mm 8 mps 750 mmHg 56%
    20:00 +34°C° 0.2 mm 8 mps 751 mmHg 60%
    21:00 +33°C° 0.2 mm 9 mps 752 mmHg 64%
    22:00 +33°C° 0 mm 8 mps 751 mmHg 65%
    23:00 +33°C° 0 mm 8 mps 751 mmHg 67%
    Show more